Location: Dortmund
(51.5019°N, 7.6520°E)
Time: 09:43:36
(UTC+01:00)

ISS - Pass Details

Date: 11 January 2018
Orbit: 401 x 406 km, 51.6° (Epoch: 17 January)

Event Time Altitude Azimuth Distance (km) Brightness Sun altitude
Exits shadow 05:42:28 28° 114° (ESE) 790 -1.8 -25.3°
Drops below altitude 10° 05:44:11 10° 109° (ESE) 1,464 0.0 -25.0°
Sets 05:46:16 0° 108° (ESE) 2,324 1.3 -24.7°
